Norfolk, VA

10:28 PM EDT on August 30, 2016 (GMT -0400)
Norfolk Naval Station / Chambers Field

Weather History for KNGU - November, 2012

Change the Weather History Date:

Saturday, November 10, 2012

  Actual Average Record
Temperature  
Mean Temperature 55 °F -  
Max Temperature 69 °F 59 °F 78 °F (2002)
Min Temperature 41 °F 45 °F 33 °F (1996)
Degree Days  
Heating Degree Days 10    
Growing Degree Days 5 (Base 50)    
Moisture  
Dew Point 38 °F    
Average Humidity 57    
Maximum Humidity 82    
Minimum Humidity 31    
Precipitation  
Precipitation 0.00 in - - ()
Sea Level Pressure  
Sea Level Pressure 30.35 in    
Wind  
Wind Speed 2 mph (SSE)    
Max Wind Speed 8 mph    
Max Gust Speed -    
Visibility 9 miles    
Events      
Averages and records for this station are not official NWS values.
T = Trace of Precipitation, MM = Missing Value Source: NWS Daily Summary

Daily Weather History Graph

Daily Weather History Graph

Search for Another Location

Airport or City:

Trip Planner

Search our weather history database for the weather conditions in past years. The results will help you decide how hot, cold, wet, or windy it might be!

Date:

Astronomy

Nov. 10, 2012 Rise Set
Actual Time 6:38 AM EST 4:58 PM EST
Civil Twilight 6:11 AM EST 5:26 PM EST
Nautical Twilight 5:40 AM EST 5:57 PM EST
Astronomical Twilight 5:09 AM EST 6:28 PM EST
Moon 2:46 AM EST (11/10) 2:40 PM EST (11/10)
Length of Visible Light 11h 14m
Length of Day
10h 20m
Waning Crescent, 14% of the Moon is Illuminated
Nov 10
Waning Crescent
Nov 13
New
Nov 20
First Quarter
Nov 28
Full
Dec 6
Last Quarter

Hourly Weather History & Observations

Time (EST) Temp. Dew Point Humidity Pressure Visibility Wind Dir Wind Speed Gust Speed Precip Events Conditions
12:59 AM 44.1 °F 37.0 °F 76% 30.27 in 7.0 mi Calm Calm - N/A   Clear
1:59 AM 44.1 °F 37.0 °F 76% 30.27 in 7.0 mi Calm Calm - N/A   Clear
2:59 AM 42.1 °F 36.0 °F 79% 30.29 in 7.0 mi Calm Calm - N/A   Clear
3:59 AM 41.0 °F 36.0 °F 82% 30.29 in 7.0 mi Calm Calm - N/A   Clear
4:59 AM 41.0 °F 36.0 °F 82% 30.31 in 7.0 mi Calm Calm - N/A   Clear
5:59 AM 42.1 °F 36.0 °F 79% 30.32 in 10.0 mi Calm Calm - N/A   Clear
6:59 AM 41.0 °F 36.0 °F 82% 30.35 in 8.0 mi Calm Calm - N/A   Clear
7:59 AM 48.0 °F 37.9 °F 68% 30.36 in 10.0 mi Calm Calm - N/A   Clear
8:59 AM 53.1 °F 37.9 °F 57% 30.38 in 10.0 mi Calm Calm - N/A   Clear
9:59 AM 57.9 °F 36.0 °F 44% 30.38 in 10.0 mi South 3.5 mph - N/A   Clear
10:59 AM 62.1 °F 37.9 °F 41% 30.37 in 10.0 mi South 4.6 mph - N/A   Clear
11:59 AM 64.9 °F 37.9 °F 37% 30.35 in 10.0 mi Variable 3.5 mph - N/A   Clear
12:59 PM 68.0 °F 37.9 °F 33% 30.33 in 10.0 mi Variable 4.6 mph - N/A   Clear
1:59 PM 69.1 °F 37.0 °F 31% 30.31 in 10.0 mi SSE 5.8 mph - N/A   Clear
2:59 PM 69.1 °F 37.0 °F 31% 30.31 in 10.0 mi SSE 5.8 mph - N/A   Clear
3:59 PM 69.1 °F 37.0 °F 31% 30.32 in 10.0 mi SSW 4.6 mph - N/A   Scattered Clouds
4:59 PM 61.0 °F 41.0 °F 48% 30.34 in 10.0 mi SE 6.9 mph - N/A   Scattered Clouds
5:59 PM 59.0 °F 42.1 °F 53% 30.36 in 10.0 mi SE 8.1 mph - N/A   Scattered Clouds
6:59 PM 57.0 °F 41.0 °F 55% 30.38 in 10.0 mi SSE 5.8 mph - N/A   Scattered Clouds
7:59 PM 55.9 °F 39.0 °F 53% 30.39 in 10.0 mi SSE 5.8 mph - N/A   Scattered Clouds
8:59 PM 55.0 °F 39.0 °F 55% 30.40 in 10.0 mi SSE 5.8 mph - N/A   Clear
9:59 PM 54.0 °F 39.0 °F 57% 30.41 in 10.0 mi South 3.5 mph - N/A   Clear
10:59 PM 54.0 °F 37.9 °F 55% 30.42 in 10.0 mi South 4.6 mph - N/A   Clear
11:59 PM 53.1 °F 37.9 °F 57% 30.42 in 10.0 mi South 3.5 mph - N/A   Clear